Flag for Germany Weather past 2 weeks in Lübeck, Schleswig-Holstein, Germany

Now
68 °F

Fog.


Feels Like: 68 °F
Forecast: 57 / 71 °F
Wind: 5 mph from Northwest

Location: Hamburg-Fuhlsbuettel

Current Time: Jul 5, 2015 at 7:01:04 AM

Latest Report: Jul 5, 2015 at 6:20 AM


Visibility: 2 mi

Pressure: 30.07 "Hg

Humidity: 94%

Dew point: 66 °F

Location of LübeckLocation

Historic Weather in Lübeck — Graph

°F

Lübeck temperature yesterday

Maximum temperature yesterday: 97 °F (at 3:20 PM)
Minimum temperature yesterday: 64 °F (at 3:20 AM)
Average temperature yesterday: 80 °F

Past Weeks' High & Low Weather Summary

 TemperatureHumidityPressure
High97 °F (Jul 4, 3:20 PM)100% (Jun 20, 6:50 AM)30.27 "Hg (Jun 20, 6:50 AM)
Low48 °F (Jun 21, 3:50 AM)23% (Jul 4, 3:50 PM)29.62 "Hg (Jun 23, 2:50 AM)
Average65 °F70%30.05 "Hg
* Reported Jun 20 5:20 AM — Jul 5 5:20 AM, Lübeck, Weather by CustomWeather, © 2015

Note: Actual official high and low records may vary slightly from our data, if they occured in-between our weather recording intervals... More about our weather records

Advertising

Lübeck weather history for previous 24 hours

 ConditionsComfort  
Time TempWeatherWind HumidityBarometerVisibility
5:20 AM
Sun, Jul 5
68 °FClear.3 mph94%30.07 "Hg4 mi
4:50 AM68 °FClear.3 mph94%30.07 "Hg6 mi
4:20 AM70 °FPassing clouds.5 mph88%30.07 "HgN/A
3:50 AM70 °FClear.2 mph83%30.07 "Hg10 mi
3:20 AM68 °FPassing clouds.5 mph88%30.07 "HgN/A
2:50 AM68 °FPassing clouds.2 mph83%30.07 "HgN/A
2:20 AM70 °FClear.5 mph78%30.07 "Hg10 mi
1:50 AM70 °FClear.7 mph78%30.07 "Hg10 mi
1:20 AM72 °FPassing clouds.3 mph69%30.07 "HgN/A
12:50 AM72 °FClear.7 mph69%30.07 "Hg10 mi
12:20 AM72 °FClear.1 mph73%30.07 "Hg10 mi
11:50 PM
Sat, Jul 4
75 °FPassing clouds.3 mph65%30.07 "HgN/A
11:20 PM77 °FPassing clouds.5 mph57%30.04 "HgN/A
10:50 PM77 °FPartly sunny.8 mph61%30.04 "HgN/A
10:20 PM79 °FPartly sunny.9 mph58%30.04 "HgN/A
9:50 PM81 °FThundershowers. Partly sunny.6 mph58%30.07 "HgN/A
9:20 PM79 °FThundershowers. Partly sunny.10 mph70%30.09 "HgN/A
8:50 PM81 °FThunderstorms. Partly sunny.18 mph66%30.07 "HgN/A
8:20 PM84 °FThundershowers. Partly sunny.6 mph58%30.01 "HgN/A
7:50 PM86 °FPartly sunny.7 mph55%30.01 "HgN/A
7:20 PM88 °FScattered clouds.9 mph55%30.01 "HgN/A
6:50 PM91 °FScattered clouds.9 mph46%30.01 "HgN/A
6:20 PM95 °FPassing clouds.9 mph34%30.01 "HgN/A
5:50 PM97 °FPassing clouds.6 mph23%30.01 "HgN/A
5:20 PM97 °FPassing clouds.5 mph25%30.04 "HgN/A
4:50 PM97 °FSunny.3 mph23%30.04 "Hg10 mi
4:20 PM97 °FPassing clouds.7 mph25%30.04 "HgN/A
3:50 PM97 °FPassing clouds.5 mph23%30.04 "HgN/A
3:20 PM97 °FPassing clouds.3 mph28%30.04 "HgN/A
2:50 PM95 °FPassing clouds.7 mph32%30.04 "HgN/A
2:20 PM95 °FSunny.5 mph32%30.07 "Hg10 mi
1:50 PM93 °FPassing clouds.6 mph32%30.07 "HgN/A
1:20 PM91 °FPassing clouds.6 mph36%30.07 "HgN/A
12:50 PM90 °FPassing clouds.7 mph41%30.07 "HgN/A
12:20 PM88 °FPassing clouds.8 mph43%30.07 "HgN/A
11:50 AM88 °FPassing clouds.9 mph46%30.09 "HgN/A
11:20 AM86 °FPassing clouds.7 mph49%30.09 "HgN/A
10:50 AM84 °FPassing clouds.8 mph48%30.09 "HgN/A
10:20 AM81 °FSunny.6 mph58%30.09 "Hg10 mi
9:50 AM79 °FPassing clouds.7 mph61%30.12 "HgN/A
9:20 AM77 °FSunny.7 mph65%30.12 "Hg10 mi
8:50 AM75 °FSunny.7 mph65%30.12 "Hg10 mi
8:20 AM75 °FSunny.8 mph65%30.12 "Hg10 mi
7:50 AM73 °FSunny.7 mph69%30.12 "Hg10 mi
7:20 AM70 °FPassing clouds.6 mph78%30.12 "HgN/A
Weather by CustomWeather, © 2015

See weather overviewHow to use our weather pages